Flight Track Log - Related Links

Times and Time Zones

All times are in EDT time to prevent confusion due to time zone crossing. See the UPS104 flight status page for this flight to view local times or setup timezone preferences in your user account.

Time Position Orientation Groundspeed Altitude Reporting Facility
EDT Latitude Longitude Course Direction KTS MPH feet Rate Location/Type
Thu 01:14:08 PM 62.0833 -152.7000 299° West 450 518 34,000  Level Anchorage Center
Thu 01:19:03 PM 62.3900 -153.9370 293° West 460 529 34,000  Level FlightAware
Thu 01:20:05 PM 62.4424 -154.1988 293° West 460 529 34,000  Level FlightAware
Thu 01:20:35 PM 62.4648 -154.3198 292° West 462 532 34,000  Level FlightAware
Thu 01:21:05 PM 62.4886 -154.4495 292° West 462 532 34,000  Level FlightAware
Thu 01:21:45 PM 62.5209 -154.6263 292° West 463 533 34,000  Level FlightAware
Thu 01:22:26 PM 62.5503 -154.7882 292° West 462 532 34,000  Level FlightAware
Thu 01:23:05 PM 62.5806 -154.9556 292° West 463 533 34,000  Level FlightAware
Thu 01:23:36 PM 62.6074 -155.1041 291° West 463 533 34,000  Level FlightAware
Thu 01:24:15 PM 62.6326 -155.2461 291° West 463 533 34,000  Level FlightAware
Thu 01:25:24 PM 62.6740 -155.4820 291° West 462 532 34,000  Level FlightAware
Thu 01:25:48 PM 62.6890 -155.5710 290° West 462 532 34,000  Level FlightAware
Thu 01:27:12 PM 62.7440 -155.8820 291° West 462 532 34,000  Level FlightAware
Thu 01:27:37 PM 62.7600 -155.9740 291° West 462 532 34,000  Level FlightAware
Thu 01:28:13 PM 62.7840 -156.1080 291° West 462 532 34,000  Level FlightAware
Thu 01:28:49 PM 62.8070 -156.2410 291° West 462 532 34,000  Level FlightAware
Thu 01:29:36 PM 62.8380 -156.4160 291° West 462 532 34,000  Level FlightAware
Thu 01:30:26 PM 62.8700 -156.6020 291° West 462 532 34,000  Level FlightAware
Thu 01:31:15 PM 62.9020 -156.7840 291° West 462 532 34,000  Level FlightAware
Thu 01:31:49 PM 62.9240 -156.9110 291° West 462 532 34,000  Level FlightAware
Thu 01:32:26 PM 62.9480 -157.0490 291° West 462 532 34,000  Level FlightAware
Thu 01:33:03 PM 62.9720 -157.1870 291° West 462 532 34,000  Level FlightAware
Thu 01:34:16 PM 63.0667 -157.9000 291° West 460 529 34,000  Level Anchorage Center
Thu 01:35:16 PM 63.1000 -158.1667 286° West 480 552 34,000  Level Anchorage Center
Thu 01:36:16 PM 63.1500 -158.4500 291° West 470 541 34,000  Level Anchorage Center
Thu 01:37:17 PM 63.1833 -158.7333 285° West 460 529 34,000  Level Anchorage Center
Thu 01:38:17 PM 63.2333 -159.0167 292° West 470 541 34,000  Level Anchorage Center
Thu 01:39:17 PM 63.2667 -159.2833 286° West 480 552 34,000  Level Anchorage Center
Thu 01:40:17 PM 63.3000 -159.5667 285° West 480 552 34,000  Level Anchorage Center
Thu 01:41:18 PM 63.3500 -159.8500 292° West 470 541 34,000  Level Anchorage Center
Thu 01:42:18 PM 63.3833 -160.1333 285° West 460 529 34,000  Level Anchorage Center
Thu 01:43:18 PM 63.4167 -160.4167 285° West 470 541 34,000  Level Anchorage Center
Thu 01:44:19 PM 63.4500 -160.6833 286° West 460 529 34,000  Level Anchorage Center
Thu 01:45:19 PM 63.5000 -160.9667 292° West 460 529 34,000  Level Anchorage Center
Thu 01:46:19 PM 63.5333 -161.2500 285° West 470 541 34,000  Level Anchorage Center
Thu 01:47:20 PM 63.5667 -161.5333 285° West 470 541 34,000  Level Anchorage Center
Thu 01:48:20 PM 63.6000 -161.8167 285° West 470 541 34,000  Level Anchorage Center
Thu 01:49:20 PM 63.6333 -162.1000 285° West 470 541 34,000  Level Anchorage Center
Thu 01:50:21 PM 63.6667 -162.3833 285° West 470 541 34,000  Level Anchorage Center
Thu 01:51:21 PM 63.7000 -162.6667 285° West 470 541 34,000  Level Anchorage Center
Thu 01:52:21 PM 63.7333 -162.9667 284° West 480 552 34,000  Level Anchorage Center
Thu 01:53:22 PM 63.7667 -163.2667 284° West 480 552 34,000  Level Anchorage Center
Thu 01:54:22 PM 63.8000 -163.5500 285° West 480 552 34,000  Level Anchorage Center
Thu 01:55:23 PM 63.8333 -163.8500 284° West 480 552 34,000  Level Anchorage Center
Thu 01:56:23 PM 63.8500 -164.1500 277° West 480 552 34,000  Level Anchorage Center
Thu 01:57:23 PM 63.8833 -164.4500 284° West 490 564 34,000  Level Anchorage Center
Thu 01:58:24 PM 63.9167 -164.7333 285° West 480 552 34,000  Level Anchorage Center
Thu 01:59:24 PM 63.9500 -165.0333 284° West 480 552 34,000  Level Anchorage Center
Thu 02:00:24 PM 63.9833 -165.3333 284° West 470 541 34,000  Level Anchorage Center
Thu 02:01:25 PM 64.0000 -165.6167 278° West 470 541 34,000  Level Anchorage Center
Thu 02:02:25 PM 64.0333 -165.9167 284° West 480 552 34,000  Level Anchorage Center
Thu 02:03:25 PM 64.0500 -166.2167 277° West 480 552 34,000  Level Anchorage Center
Thu 02:04:26 PM 64.0833 -166.5833 282° West 470 541 34,000  Level Anchorage Center
Thu 02:05:26 PM 64.1000 -166.8667 278° West 460 529 34,000  Level Anchorage Center
Thu 02:06:26 PM 64.1333 -167.1667 284° West 470 541 34,000  Level Anchorage Center
Thu 02:07:26 PM 64.1500 -167.4000 279° West 470 541 34,000  Level Anchorage Center
Thu 02:08:27 PM 64.1833 -167.7500 282° West 470 541 34,000  Level Anchorage Center
Thu 02:09:27 PM 64.2000 -168.0000 279° West 460 529 34,000  Level Anchorage Center
Thu 02:10:27 PM 64.2167 -168.3500 276° West 470 541 34,000  Level Anchorage Center
Thu 02:11:28 PM 64.2500 -168.6500 284° West 470 541 34,000  Level Anchorage Center
Thu 02:12:28 PM 64.2667 -168.9500 277° West 470 541 34,000  Level Anchorage Center
Thu 02:13:28 PM 64.2833 -169.2333 278° West 460 529 34,000  Level Anchorage Center
Thu 02:14:29 PM 64.3000 -169.5333 277° West 460 529 34,000  Level Anchorage Center
Thu 02:15:29 PM 64.3167 -169.8333 277° West 460 529 34,000  Level Anchorage Center
Thu 02:16:30 PM 64.3333 -170.1167 278° West 460 529 34,000  Level Anchorage Center
Thu 02:17:30 PM 64.3500 -170.4167 277° West 460 529 34,000  Level Anchorage Center
Thu 02:18:30 PM 64.3667 -170.7167 277° West 460 529 34,000  Level Anchorage Center
Thu 02:19:31 PM 64.3833 -171.0167 277° West 470 541 34,000  Level Anchorage Center
Thu 02:20:31 PM 64.3833 -171.3167 270° West 470 541 34,000  Level Anchorage Center
Thu 02:22:00 PM 64.3250 -171.7605 253° West  Level Estimated
Thu 02:29:00 PM 64.0319 -173.8291 253° West  Level Estimated
Thu 02:30:00 PM 63.9877 -174.1210 251° West  Level Estimated
Thu 02:31:00 PM 63.9428 -174.4119 251° West  Level Estimated
Thu 02:32:00 PM 63.8974 -174.7019 251° West  Level Estimated
Thu 02:33:00 PM 63.8514 -174.9910 250° West  Level Estimated
Thu 02:34:00 PM 63.8049 -175.2791 250° West  Level Estimated
Thu 02:35:00 PM 63.7577 -175.5663 250° West  Level Estimated
Thu 02:35:09 PM 64.4590 -175.6300 250° West 468 539 34,000  Level FlightAware
Thu 02:35:46 PM 64.4730 -175.8380 279° West 468 539 34,000  Level FlightAware
Thu 02:36:21 PM 64.4840 -176.0100 279° West 468 539 34,000  Level FlightAware
Thu 02:36:52 PM 64.4940 -176.1760 278° West 467 537 34,000  Level FlightAware
Thu 02:37:32 PM 64.5060 -176.3660 278° West 467 537 34,000  Level FlightAware
Thu 02:38:03 PM 64.5150 -176.5210 278° West 467 537 34,000  Level FlightAware
Thu 02:38:44 PM 64.5270 -176.7370 277° West 468 539 34,000  Level FlightAware
Thu 02:39:05 PM 64.5340 -176.8460 279° West 468 539 34,000  Level FlightAware
Thu 02:40:25 PM 64.5540 -177.2220 277° West 468 539 34,000  Level FlightAware
Thu 02:40:56 PM 64.5630 -177.3740 278° West 468 539 34,000  Level FlightAware
Thu 02:41:32 PM 64.5720 -177.5590 277° West 469 540 34,000  Level FlightAware
Thu 02:42:03 PM 64.5810 -177.7340 277° West 470 541 34,000  Level FlightAware
Thu 02:42:30 PM 64.5860 -177.8250 277° West 470 541 34,000  Level FlightAware
Thu 02:43:12 PM 64.5970 -178.0450 277° West 472 543 34,000  Level FlightAware
Thu 02:43:46 PM 64.6050 -178.2300 276° West 472 543 34,000  Level FlightAware
Thu 02:44:26 PM 64.6150 -178.4230 277° West 472 543 34,000  Level FlightAware
Thu 02:44:57 PM 64.6210 -178.5780 275° West 473 544 34,000  Level FlightAware
Thu 02:45:42 PM 64.6320 -178.8110 276° West 474 545 34,000  Level FlightAware
Thu 02:46:22 PM 64.6400 -179.0100 275° West 474 545 34,000  Level FlightAware
Thu 02:46:45 PM 64.6450 -179.1220 276° West 475 547 34,000  Level FlightAware
Thu 02:47:20 PM 64.6520 -179.3090 275° West 475 547 34,000  Level FlightAware
Thu 02:48:25 PM 64.6650 -179.6460 275° West 477 549 34,000  Level FlightAware
Thu 02:48:45 PM 64.6690 -179.7440 275° West 477 549 34,000  Level FlightAware
Thu 02:49:32 PM 64.6780 -179.9910 275° West 478 550 34,000  Level FlightAware
Thu 02:50:04 PM 64.6830 179.8500 274° West 479 551 34,000  Level FlightAware
Thu 02:50:45 PM 64.6900 179.6390 275° West 480 552 34,000  Level FlightAware
Thu 02:51:20 PM 64.6950 179.4590 274° West 481 554 34,000  Level FlightAware
Thu 02:52:04 PM 64.7010 179.2320 274° West 482 555 34,000  Level FlightAware
Thu 02:52:27 PM 64.7050 179.1040 274° West 483 556 34,000  Level FlightAware
Thu 02:53:13 PM 64.7110 178.8730 274° West 483 556 34,000  Level FlightAware
Thu 02:53:54 PM 64.7150 178.6910 273° West 483 556 34,000  Level FlightAware
Thu 02:54:50 PM 64.7230 178.3450 273° West 486 559 34,000  Level FlightAware
Thu 02:55:26 PM 64.7250 178.2030 272° West 486 559 34,000  Level FlightAware
Thu 02:55:56 PM 64.7240 178.3030 91° East 486 559 34,000  Level FlightAware
Thu 02:56:27 PM 64.7260 178.1930 272° West 488 562 34,000  Level FlightAware
Thu 02:57:53 PM 64.7320 177.8070 272° West 488 562 34,000  Level FlightAware
Thu 02:58:27 PM 64.7340 177.6540 272° West 488 562 34,000  Level FlightAware
Thu 02:59:39 PM 64.7390 177.3310 272° West 488 562 34,000  Level FlightAware
Thu 03:01:09 PM 64.7500 176.3720 272° West 495 570 34,000  Level FlightAware
Thu 03:01:41 PM 64.7510 176.2110 271° West 495 570 34,000  Level FlightAware
Thu 03:02:50 PM 64.7510 176.1210 270° West 495 570 34,000  Level FlightAware
Thu 03:03:08 PM 64.7520 175.9440 271° West 495 570 34,000  Level FlightAware
Thu 03:04:06 PM 64.7520 175.6170 270° West 495 570 34,000  Level FlightAware
Thu 03:05:08 PM 64.7520 175.2770 270° West 495 570 34,000  Level FlightAware
Thu 03:05:49 PM 64.7520 175.0570 270° West 495 570 34,000  Level FlightAware
Thu 03:06:28 PM 64.7510 174.8280 270° West 495 570 34,000  Level FlightAware
Thu 03:07:39 PM 64.7490 174.4630 269° West 496 571 34,000  Level FlightAware
Thu 03:08:29 PM 64.7470 174.1890 269° West 496 571 34,000  Level FlightAware
Thu 03:09:08 PM 64.7450 173.9440 269° West 496 571 34,000  Level FlightAware
Thu 03:09:39 PM 64.7430 173.7640 269° West 497 572 34,000  Level FlightAware
Thu 03:10:24 PM 64.7400 173.5560 268° West 498 573 34,000  Level FlightAware
Thu 03:10:59 PM 64.7370 173.3630 268° West 498 573 34,000  Level FlightAware
Thu 03:12:15 PM 64.7310 172.9650 268° West 498 573 34,000  Level FlightAware
Thu 03:12:45 PM 64.7280 172.7580 268° West 498 573 34,000  Level FlightAware
Thu 03:13:34 PM 64.7230 172.5280 267° West 499 574 34,000  Level FlightAware
Thu 03:14:09 PM 64.7200 172.3500 268° West 499 574 34,000  Level FlightAware
Thu 03:14:45 PM 64.7150 172.1620 267° West 499 574 34,000  Level FlightAware
Thu 03:15:34 PM 64.7100 171.9000 268° West 499 574 34,000  Level FlightAware
Thu 03:16:01 PM 64.7060 171.7730 266° West 499 574 34,000  Level FlightAware
Thu 03:16:28 PM 64.7030 171.6390 267° West 500 575 34,000  Level FlightAware
Thu 03:17:44 PM 64.6930 171.2580 267° West 501 577 34,000  Level FlightAware
Thu 03:18:20 PM 64.6880 171.0930 266° West 501 577 34,000  Level FlightAware
Thu 03:18:57 PM 64.6820 170.9230 265° West 501 577 34,000  Level FlightAware
Thu 03:19:33 PM 64.6770 170.7570 266° West 501 577 34,000  Level FlightAware
Thu 03:20:33 PM 64.6690 170.4820 266° West 501 577 34,000  Level FlightAware
Thu 03:20:55 PM 64.6660 170.3800 266° West 501 577 34,000  Level FlightAware
Thu 03:21:43 PM 64.6590 170.1600 266° West 501 577 34,000  Level FlightAware
Thu 03:22:19 PM 64.6540 169.9950 266° West 501 577 34,000  Level FlightAware
Thu 03:22:55 PM 64.6500 169.8290 267° West 501 577 34,000  Level FlightAware
Thu 03:23:19 PM 64.6460 169.7190 265° West 501 577 34,000  Level FlightAware
Thu 03:23:56 PM 64.6410 169.5490 266° West 501 577 34,000  Level FlightAware
Thu 03:24:47 PM 64.6340 169.3160 266° West 501 577 34,000  Level FlightAware
Thu 03:25:23 PM 64.6290 169.1500 266° West 501 577 34,000  Level FlightAware
Thu 03:25:59 PM 64.6240 168.9850 266° West 501 577 34,000  Level FlightAware
Thu 03:26:48 PM 64.6170 168.7610 266° West 501 577 34,000  Level FlightAware
Thu 03:27:11 PM 64.6140 168.6550 266° West 501 577 34,000  Level FlightAware
Thu 03:30:00 PM 64.3679 167.9789 230° Southwest  Level Estimated
Thu 03:31:00 PM 64.2798 167.7417 229° Southwest  Level Estimated
Thu 03:32:00 PM 64.1914 167.5061 229° Southwest  Level Estimated
Thu 03:33:00 PM 64.1025 167.2720 229° Southwest  Level Estimated
Thu 03:34:00 PM 64.0133 167.0393 229° Southwest  Level Estimated
Thu 03:35:00 PM 63.9237 166.8082 229° Southwest  Level Estimated
Thu 03:36:00 PM 63.8337 166.5785 228° Southwest  Level Estimated
Thu 03:37:00 PM 63.7434 166.3503 228° Southwest  Level Estimated
Thu 03:38:00 PM 63.6527 166.1236 228° Southwest  Level Estimated
Thu 03:39:00 PM 63.5616 165.8983 228° Southwest  Level Estimated
Thu 03:40:00 PM 63.4702 165.6744 228° Southwest  Level Estimated
Thu 03:41:00 PM 63.3785 165.4520 227° Southwest  Level Estimated
Thu 03:42:00 PM 63.2864 165.2310 227° Southwest  Level Estimated
Thu 03:43:00 PM 63.1940 165.0114 227° Southwest  Level Estimated
Thu 03:44:00 PM 63.1012 164.7932 227° Southwest  Level Estimated
Thu 03:45:00 PM 63.0082 164.5764 227° Southwest  Level Estimated
Thu 03:46:00 PM 62.9147 164.3609 226° Southwest  Level Estimated
Thu 03:47:00 PM 62.8210 164.1469 226° Southwest  Level Estimated
Thu 03:48:00 PM 62.7269 163.9342 226° Southwest  Level Estimated
Thu 03:49:00 PM 62.6325 163.7228 226° Southwest  Level Estimated
Thu 03:50:00 PM 62.5378 163.5128 226° Southwest  Level Estimated
Thu 03:51:00 PM 62.4428 163.3042 226° Southwest  Level Estimated
Thu 03:52:00 PM 62.3475 163.0968 225° Southwest  Level Estimated
Thu 03:53:00 PM 62.2518 162.8908 225° Southwest  Level Estimated
Thu 03:54:00 PM 62.1559 162.6861 225° Southwest  Level Estimated
Thu 03:55:00 PM 62.0597 162.4826 225° Southwest  Level Estimated
Thu 03:56:00 PM 61.9631 162.2805 225° Southwest  Level Estimated
Thu 03:57:00 PM 61.8663 162.0796 224° Southwest  Level Estimated
Thu 03:58:00 PM 61.7692 161.8800 224° Southwest  Level Estimated
Thu 03:59:00 PM 61.6717 161.6817 224° Southwest  Level Estimated
Thu 04:00:00 PM 61.5741 161.4846 224° Southwest  Level Estimated
Thu 04:01:00 PM 61.4761 161.2888 224° Southwest  Level Estimated
Thu 04:02:00 PM 61.3778 161.0941 224° Southwest  Level Estimated
Thu 04:03:00 PM 61.2793 160.9007 223° Southwest  Level Estimated
Thu 04:04:00 PM 61.1805 160.7086 223° Southwest  Level Estimated
Thu 04:05:00 PM 61.0814 160.5176 223° Southwest  Level Estimated
Thu 04:06:00 PM 60.9821 160.3278 223° Southwest  Level Estimated
Thu 04:07:00 PM 60.8825 160.1392 223° Southwest  Level Estimated
Thu 04:08:00 PM 60.7826 159.9517 223° Southwest  Level Estimated
Thu 04:09:00 PM 60.6824 159.7655 222° Southwest  Level Estimated
Thu 04:10:00 PM 60.5821 159.5804 222° Southwest  Level Estimated
Thu 04:11:00 PM 60.4814 159.3964 222° Southwest  Level Estimated
Thu 04:12:00 PM 60.3805 159.2136 222° Southwest  Level Estimated
Thu 04:13:00 PM 60.2794 159.0319 222° Southwest  Level Estimated
Thu 04:14:00 PM 60.1780 158.8513 222° Southwest  Level Estimated
Thu 04:15:00 PM 60.0764 158.6719 221° Southwest  Level Estimated
Thu 04:16:00 PM 59.9745 158.4935 221° Southwest  Level Estimated
Thu 04:17:00 PM 59.8724 158.3163 221° Southwest  Level Estimated
Thu 04:18:00 PM 59.7700 158.1401 221° Southwest  Level Estimated
Thu 04:19:00 PM 59.6675 157.9650 221° Southwest  Level Estimated
Thu 04:20:00 PM 59.5646 157.7910 221° Southwest  Level Estimated
Thu 04:21:00 PM 59.4616 157.6180 220° Southwest  Level Estimated
Thu 04:22:00 PM 59.3583 157.4461 220° Southwest  Level Estimated
Thu 04:23:00 PM 59.2548 157.2753 220° Southwest  Level Estimated
Thu 04:24:00 PM 59.1511 157.1054 220° Southwest  Level Estimated
Thu 04:25:00 PM 59.0472 156.9366 220° Southwest  Level Estimated
Thu 04:26:00 PM 58.9430 156.7688 220° Southwest  Level Estimated
Thu 04:27:00 PM 58.8386 156.6021 220° Southwest  Level Estimated
Thu 04:28:00 PM 58.7340 156.4363 219° Southwest  Level Estimated
Thu 04:29:00 PM 58.6292 156.2715 219° Southwest  Level Estimated
Thu 04:30:00 PM 58.5242 156.1078 219° Southwest  Level Estimated
Thu 04:31:00 PM 58.4190 155.9449 219° Southwest  Level Estimated
Thu 04:32:00 PM 58.3136 155.7831 219° Southwest  Level Estimated
Thu 04:33:00 PM 58.2080 155.6222 219° Southwest  Level Estimated
Thu 04:34:00 PM 58.1021 155.4623 219° Southwest  Level Estimated
Thu 04:35:00 PM 57.9961 155.3033 218° Southwest  Level Estimated
Thu 04:36:00 PM 57.8899 155.1453 218° Southwest  Level Estimated
Thu 04:37:00 PM 57.7835 154.9882 218° Southwest  Level Estimated
Thu 04:38:00 PM 57.6769 154.8320 218° Southwest  Level Estimated
Thu 04:39:00 PM 57.5701 154.6768 218° Southwest  Level Estimated
Thu 04:40:00 PM 57.4631 154.5224 218° Southwest  Level Estimated
Thu 04:41:00 PM 57.3559 154.3690 218° Southwest  Level Estimated
Thu 04:42:00 PM 57.2485 154.2164 218° Southwest  Level Estimated
Thu 04:43:00 PM 57.1410 154.0647 217° Southwest  Level Estimated
Thu 04:44:00 PM 57.0333 153.9140 217° Southwest  Level Estimated
Thu 04:45:00 PM 56.9254 153.7640 217° Southwest  Level Estimated
Thu 04:46:00 PM 56.8173 153.6150 217° Southwest  Level Estimated
Thu 04:47:00 PM 56.7090 153.4668 217° Southwest  Level Estimated
Thu 04:48:00 PM 56.6006 153.3195 217° Southwest  Level Estimated
Thu 04:49:00 PM 56.4920 153.1730 217° Southwest  Level Estimated
Thu 04:50:00 PM 56.3832 153.0273 217° Southwest  Level Estimated
Thu 04:51:00 PM 56.2742 152.8825 216° Southwest  Level Estimated
Thu 04:52:00 PM 56.1651 152.7385 216° Southwest  Level Estimated
Thu 04:53:00 PM 56.0558 152.5953 216° Southwest  Level Estimated
Thu 04:54:00 PM 55.9464 152.4529 216° Southwest  Level Estimated
Thu 04:55:00 PM 55.8367 152.3113 216° Southwest  Level Estimated
Thu 04:56:00 PM 55.7270 152.1705 216° Southwest  Level Estimated
Thu 04:57:00 PM 55.6170 152.0305 216° Southwest  Level Estimated
Thu 04:58:00 PM 55.5069 151.8913 216° Southwest  Level Estimated
Thu 04:59:00 PM 55.3967 151.7529 216° Southwest  Level Estimated
Thu 05:00:00 PM 55.2863 151.6152 215° Southwest  Level Estimated
Thu 05:01:00 PM 55.1757 151.4783 215° Southwest  Level Estimated
Thu 05:02:00 PM 55.0650 151.3422 215° Southwest  Level Estimated
Thu 05:03:00 PM 54.9541 151.2068 215° Southwest  Level Estimated
Thu 05:04:00 PM 54.8431 151.0722 215° Southwest  Level Estimated
Thu 05:05:00 PM 54.7319 150.9383 215° Southwest  Level Estimated
Thu 05:06:00 PM 54.6206 150.8051 215° Southwest  Level Estimated
Thu 05:07:00 PM 54.5092 150.6727 215° Southwest  Level Estimated
Thu 05:08:00 PM 54.3976 150.5410 215° Southwest  Level Estimated
Thu 05:09:00 PM 54.2858 150.4099 214° Southwest  Level Estimated
Thu 05:10:00 PM 54.1740 150.2797 214° Southwest  Level Estimated
Thu 05:11:00 PM 54.0619 150.1501 214° Southwest  Level Estimated
Thu 05:12:00 PM 53.9498 150.0212 214° Southwest  Level Estimated
Thu 05:13:00 PM 53.8375 149.8930 214° Southwest  Level Estimated
Thu 05:14:00 PM 53.7250 149.7655 214° Southwest  Level Estimated
Thu 05:15:00 PM 53.6125 149.6386 214° Southwest  Level Estimated
Thu 05:16:00 PM 53.4998 149.5125 214° Southwest  Level Estimated
Thu 05:17:00 PM 53.3869 149.3870 214° Southwest  Level Estimated
Thu 05:18:00 PM 53.2740 149.2621 213° Southwest  Level Estimated
Thu 05:19:00 PM 53.1609 149.1380 213° Southwest  Level Estimated
Thu 05:20:00 PM 53.0476 149.0145 213° Southwest  Level Estimated
Thu 05:21:00 PM 52.9343 148.8916 213° Southwest  Level Estimated
Thu 05:22:00 PM 52.8208 148.7693 213° Southwest  Level Estimated
Thu 05:23:00 PM 52.7072 148.6478 213° Southwest  Level Estimated
Thu 05:24:00 PM 52.5935 148.5268 213° Southwest  Level Estimated
Thu 05:25:00 PM 52.4796 148.4065 213° Southwest  Level Estimated
Thu 05:26:00 PM 52.3657 148.2868 213° Southwest  Level Estimated
Thu 05:27:00 PM 52.2516 148.1677 213° Southwest  Level Estimated
Thu 05:28:00 PM 52.1374 148.0492 212° Southwest  Level Estimated
Thu 05:29:00 PM 52.0230 147.9313 212° Southwest  Level Estimated
Thu 05:30:00 PM 51.9086 147.8141 212° Southwest  Level Estimated
Thu 05:31:00 PM 51.7940 147.6974 212° Southwest  Level Estimated
Thu 05:32:00 PM 51.6794 147.5813 212° Southwest  Level Estimated
Thu 05:33:00 PM 51.5646 147.4658 212° Southwest  Level Estimated
Thu 05:34:00 PM 51.4497 147.3509 212° Southwest  Level Estimated
Thu 05:35:00 PM 51.3347 147.2365 212° Southwest  Level Estimated
Thu 05:36:00 PM 51.2195 147.1228 212° Southwest  Level Estimated
Thu 05:37:00 PM 51.1043 147.0096 212° Southwest  Level Estimated
Thu 05:38:00 PM 50.9890 146.8969 212° Southwest  Level Estimated
Thu 05:39:00 PM 50.8735 146.7848 212° Southwest  Level Estimated
Thu 05:40:00 PM 50.7580 146.6733 211° Southwest  Level Estimated
Thu 05:41:00 PM 50.6423 146.5623 211° Southwest  Level Estimated
Thu 05:42:00 PM 50.5265 146.4519 211° Southwest  Level Estimated
Thu 05:43:00 PM 50.4107 146.3420 211° Southwest  Level Estimated
Thu 05:44:00 PM 50.2947 146.2327 211° Southwest  Level Estimated
Thu 05:45:00 PM 50.1786 146.1239 211° Southwest  Level Estimated
Thu 05:46:00 PM 50.0624 146.0156 211° Southwest  Level Estimated
Thu 05:47:00 PM 49.9461 145.9078 211° Southwest  Level Estimated
Thu 05:48:00 PM 49.8298 145.8005 211° Southwest  Level Estimated
Thu 05:49:00 PM 49.7133 145.6938 211° Southwest  Level Estimated
Thu 05:50:00 PM 49.5967 145.5876 211° Southwest  Level Estimated
Thu 05:51:00 PM 49.4800 145.4819 210° Southwest  Level Estimated
Thu 05:52:00 PM 49.3633 145.3767 210° Southwest  Level Estimated
Thu 05:53:00 PM 49.2464 145.2720 210° Southwest  Level Estimated
Thu 05:54:00 PM 49.1295 145.1677 210° Southwest  Level Estimated
Thu 05:55:00 PM 49.0124 145.0640 210° Southwest  Level Estimated
Thu 05:56:00 PM 48.8953 144.9608 210° Southwest  Level Estimated
Thu 05:57:00 PM 48.7780 144.8580 210° Southwest  Level Estimated
Thu 05:58:00 PM 48.6607 144.7557 210° Southwest  Level Estimated
Thu 05:59:00 PM 48.5433 144.6539 210° Southwest  Level Estimated
Thu 06:00:00 PM 48.4258 144.5526 210° Southwest  Level Estimated
Thu 06:01:00 PM 48.3082 144.4517 210° Southwest  Level Estimated
Thu 06:02:00 PM 48.1905 144.3513 210° Southwest  Level Estimated
Thu 06:03:00 PM 48.0728 144.2514 210° Southwest  Level Estimated
Thu 06:04:00 PM 47.9549 144.1519 209° Southwest  Level Estimated
Thu 06:05:00 PM 47.8370 144.0529 209° Southwest  Level Estimated
Thu 06:06:00 PM 47.7189 143.9543 209° Southwest  Level Estimated
Thu 06:07:00 PM 47.6008 143.8562 209° Southwest  Level Estimated
Thu 06:08:00 PM 47.4827 143.7585 209° Southwest  Level Estimated
Thu 06:09:00 PM 47.3644 143.6612 209° Southwest  Level Estimated
Thu 06:10:00 PM 47.2460 143.5644 209° Southwest  Level Estimated
Thu 06:11:00 PM 47.1276 143.4680 209° Southwest  Level Estimated
Thu 06:12:00 PM 47.0091 143.3720 209° Southwest  Level Estimated
Thu 06:13:00 PM 46.8905 143.2765 209° Southwest  Level Estimated
Thu 06:14:00 PM 46.7718 143.1814 209° Southwest  Level Estimated
Thu 06:15:00 PM 46.6530 143.0867 209° Southwest  Level Estimated
Thu 06:16:00 PM 46.5342 142.9924 209° Southwest  Level Estimated
Thu 06:17:00 PM 46.4153 142.8985 209° Southwest  Level Estimated
Thu 06:18:00 PM 46.2963 142.8051 208° Southwest  Level Estimated
Thu 06:19:00 PM 46.1772 142.7120 208° Southwest  Level Estimated
Thu 06:20:00 PM 46.0581 142.6194 208° Southwest  Level Estimated
Thu 06:21:00 PM 45.9389 142.5271 208° Southwest  Level Estimated
Thu 06:22:00 PM 45.8196 142.4353 208° Southwest  Level Estimated
Thu 06:23:00 PM 45.7002 142.3438 208° Southwest  Level Estimated
Thu 06:24:00 PM 45.5808 142.2527 208° Southwest  Level Estimated
Thu 06:25:00 PM 45.4613 142.1621 208° Southwest  Level Estimated
Thu 06:26:00 PM 45.3417 142.0718 208° Southwest  Level Estimated
Thu 06:27:00 PM 45.2221 141.9818 208° Southwest  Level Estimated
Thu 06:27:12 PM 45.8790 144.2970 208° Southwest 360 414 34,000  Level FlightAware
Thu 06:28:00 PM 45.1024 141.8923 208° Southwest  Level Estimated
Thu 06:28:20 PM 45.7690 144.1950 213° Southwest 362 417 34,000  Level FlightAware
Thu 06:28:42 PM 45.7360 144.1650 212° Southwest 364 419 34,000  Level FlightAware
Thu 06:29:09 PM 45.7000 144.1320 213° Southwest 364 419 34,000  Level FlightAware
Thu 06:30:12 PM 45.6120 144.0520 212° Southwest 364 419 34,000  Level FlightAware
Thu 06:30:53 PM 45.5500 143.9950 213° Southwest 364 419 34,000  Level FlightAware
Thu 06:31:47 PM 45.4780 143.9300 212° Southwest 363 418 34,000  Level FlightAware
Thu 06:32:42 PM 45.3960 143.8570 212° Southwest 362 417 34,000  Level FlightAware
Thu 06:33:36 PM 45.3200 143.7880 213° Southwest 362 417 34,000  Level FlightAware
Thu 06:34:33 PM 45.2390 143.7150 212° Southwest 362 417 34,000  Level FlightAware
Thu 06:35:31 PM 45.1550 143.6430 211° Southwest 359 413 34,000  Level FlightAware
Thu 06:36:22 PM 45.0820 143.5840 210° Southwest 359 413 34,000  Level FlightAware
Thu 06:37:14 PM 45.0090 143.5240 210° Southwest 359 413 34,000  Level FlightAware
Thu 06:38:05 PM 44.9370 143.4650 210° Southwest 359 413 34,000  Level FlightAware
Thu 06:39:04 PM 44.8440 143.3890 210° Southwest 360 414 34,000  Level FlightAware
Thu 06:39:54 PM 44.7720 143.3310 210° Southwest 360 414 34,000  Level FlightAware
Thu 06:40:35 PM 44.7100 143.2810 210° Southwest 360 414 34,000  Level FlightAware
Thu 06:41:30 PM 44.6280 143.2150 210° Southwest 367 422 34,000  Level FlightAware
Thu 06:42:15 PM 44.5670 143.1650 210° Southwest 368 423 34,000  Level FlightAware
Thu 06:42:55 PM 44.5060 143.1170 209° Southwest 369 425 34,000  Level FlightAware
Thu 06:43:25 PM 44.4590 143.0800 209° Southwest 370 426 34,000  Level FlightAware
Thu 06:44:22 PM 44.3750 143.0120 210° Southwest 370 426 34,000  Level FlightAware
Thu 06:45:17 PM 44.2930 142.9470 210° Southwest 371 427 34,000  Level FlightAware
Thu 06:46:05 PM 44.2240 142.8920 210° Southwest 371 427 34,000  Level FlightAware
Thu 06:46:56 PM 44.1450 142.8300 209° Southwest 372 428 34,000  Level FlightAware
Thu 06:47:53 PM 44.0580 142.7620 209° Southwest 373 429 34,000  Level FlightAware
Thu 06:48:52 PM 43.9740 142.6960 209° Southwest 374 430 34,000  Level FlightAware
Thu 06:49:40 PM 43.8990 142.6370 210° Southwest 374 430 34,000  Level FlightAware
Thu 06:50:30 PM 43.8220 142.5770 209° Southwest 369 425 34,000  Level FlightAware
Thu 06:51:15 PM 43.7550 142.5250 209° Southwest 369 425 34,000  Level FlightAware
Thu 06:51:52 PM 43.7050 142.4860 209° Southwest 370 426 34,000  Level FlightAware
Thu 06:52:31 PM 43.6380 142.4340 209° Southwest 377 434 34,000  Level FlightAware
Thu 06:53:23 PM 43.5680 142.3770 211° Southwest 377 434 34,000  Level FlightAware
Thu 06:54:02 PM 43.5080 142.3290 210° Southwest 371 427 34,000  Level FlightAware
Thu 06:55:16 PM 43.4130 142.2530 210° Southwest 380 437 34,000  Level FlightAware
Thu 06:55:58 PM 43.3500 142.2020 210° Southwest 380 437 34,000  Level FlightAware
Thu 06:56:57 PM 43.2660 142.1350 210° Southwest 382 440 34,000  Level FlightAware
Thu 06:57:53 PM 43.1530 142.0450 210° Southwest 374 430 34,000  Level FlightAware
Thu 06:58:48 PM 43.0670 141.9790 209° Southwest 376 433 34,000  Level FlightAware
Thu 06:59:17 PM 43.0220 141.9440 210° Southwest 375 432 34,000  Level FlightAware
Thu 06:59:48 PM 42.9750 141.9080 209° Southwest 375 432 34,000  Level FlightAware
Thu 07:00:37 PM 42.8990 141.8490 210° Southwest 375 432 34,000  Level FlightAware
Thu 07:01:27 PM 42.8220 141.7900 209° Southwest 375 432 34,000  Level FlightAware
Thu 07:02:18 PM 42.7450 141.7310 209° Southwest 375 432 34,000  Level FlightAware
Thu 07:02:42 PM 42.7060 141.7010 209° Southwest 375 432 34,000  Level FlightAware
Thu 07:03:37 PM 42.6260 141.6280 214° Southwest 377 434 34,000  Level FlightAware
Thu 07:04:27 PM 42.5560 141.5610 215° Southwest 378 435 34,000  Level FlightAware
Thu 07:04:58 PM 42.5110 141.5180 215° Southwest 378 435 34,000  Level FlightAware
Thu 07:05:53 PM 42.4320 141.4440 215° Southwest 377 434 34,000  Level FlightAware
Thu 07:06:53 PM 42.3470 141.3640 215° Southwest 376 433 34,000  Level FlightAware
Thu 07:07:32 PM 42.2930 141.3130 215° Southwest 375 432 34,000  Level FlightAware
Thu 07:08:08 PM 42.2410 141.2640 215° Southwest 373 429 34,000  Level FlightAware
Thu 07:08:37 PM 42.1990 141.2240 215° Southwest 372 428 34,000  Level FlightAware
Thu 07:09:38 PM 42.1130 141.1440 215° Southwest 373 429 34,000  Level FlightAware
Thu 07:10:22 PM 42.0500 141.0860 214° Southwest 373 429 34,000  Level FlightAware
Thu 07:11:12 PM 41.9780 141.0200 214° Southwest 368 423 34,000  Level FlightAware
Thu 07:11:28 PM 41.9570 141.0010 214° Southwest 368 423 34,000  Level FlightAware
Thu 07:12:10 PM 41.8940 140.9450 213° Southwest 373 429 34,000  Level FlightAware
Thu 07:12:40 PM 41.8520 140.9070 214° Southwest 373 429 34,000  Level FlightAware
Thu 07:13:35 PM 41.7720 140.8380 213° Southwest 373 429 34,000  Level FlightAware
Thu 07:14:25 PM 41.6880 140.7930 202° Southwest 392 451 34,000  Level FlightAware
Thu 07:15:10 PM 41.6090 140.7560 199° South 394 453 34,000  Level FlightAware
Thu 07:15:40 PM 41.5590 140.7330 199° South 395 455 34,000  Level FlightAware
Thu 07:16:35 PM 41.4630 140.6880 199° South 396 456 34,000  Level FlightAware
Thu 07:17:31 PM 41.3680 140.6440 199° South 396 456 34,000  Level FlightAware
Thu 07:18:30 PM 41.2640 140.5950 200° South 396 456 34,000  Level FlightAware
Thu 07:19:15 PM 41.1870 140.5600 199° South 395 455 34,000  Level FlightAware
Thu 07:19:46 PM 41.1340 140.5360 199° South 395 455 34,000  Level FlightAware
Thu 07:20:35 PM 41.0490 140.4970 199° South 394 453 34,000  Level FlightAware
Thu 07:21:02 PM 41.0060 140.4770 199° South 395 455 34,000  Level FlightAware
Thu 07:22:01 PM 40.9000 140.4280 199° South 396 456 34,000  Level FlightAware
Thu 07:22:56 PM 40.8050 140.3850 199° South 389 448 34,000  Level FlightAware
Thu 07:23:41 PM 40.7270 140.3490 199° South 390 449 34,000  Level FlightAware
Thu 07:24:33 PM 40.6390 140.3090 199° South 390 449 34,000  Level FlightAware
Thu 07:25:21 PM 40.5520 140.2700 199° South 392 451 34,000  Level FlightAware
Thu 07:25:51 PM 40.5000 140.2460 199° South 392 451 34,000  Level FlightAware
Thu 07:26:26 PM 40.4400 140.2190 199° South 391 450 34,000  Level FlightAware
Thu 07:27:21 PM 40.3440 140.1760 199° South 392 451 34,000  Level FlightAware
Thu 07:27:51 PM 40.2900 140.1520 199° South 393 452 34,000  Level FlightAware
Thu 07:28:27 PM 40.2300 140.1250 199° South 394 453 34,000  Level FlightAware
Thu 07:29:06 PM 40.1590 140.0930 199° South 395 455 34,000  Level FlightAware
Thu 07:29:57 PM 40.0700 140.0530 199° South 395 455 34,000  Level FlightAware
Thu 07:30:27 PM 40.0170 140.0290 199° South 396 456 34,000  Level FlightAware
Thu 07:31:22 PM 39.9210 139.9840 200° South 408 470 34,000  Level FlightAware
Thu 07:31:57 PM 39.8590 139.9560 199° South 409 471 34,000  Level FlightAware
Thu 07:32:47 PM 39.7690 139.9150 199° South 409 471 34,000  Level FlightAware
Thu 07:33:17 PM 39.7150 139.8900 200° South 410 472 34,000  Level FlightAware
Thu 07:34:08 PM 39.6260 139.8500 199° South 408 470 34,000  Level FlightAware
Thu 07:35:00 PM 39.5330 139.8070 200° South 408 470 34,000  Level FlightAware
Thu 07:35:47 PM 39.4480 139.7690 199° South 406 467 34,000  Level FlightAware
Thu 07:36:48 PM 39.3400 139.7200 199° South 405 466 34,000  Level FlightAware
Thu 07:37:19 PM 39.2870 139.6960 199° South 406 467 34,000  Level FlightAware
Thu 07:38:09 PM 39.1960 139.6530 200° South 402 463 34,000  Level FlightAware
Thu 07:38:39 PM 39.1470 139.6170 210° Southwest 395 455 34,000  Level FlightAware
Thu 07:39:34 PM 39.0790 139.5360 223° Southwest 388 447 34,000  Level FlightAware
Thu 07:40:07 PM 39.0380 139.4820 226° Southwest 388 447 34,000  Level FlightAware
Thu 07:41:05 PM 38.9600 139.3810 225° Southwest 388 447 34,000  Level FlightAware
Thu 07:41:55 PM 38.8990 139.3020 225° Southwest 387 445 34,000  Level FlightAware
Thu 07:42:46 PM 38.8340 139.2190 225° Southwest 386 444 34,000  Level FlightAware
Thu 07:43:41 PM 38.7630 139.1300 224° Southwest 382 440 34,000  Level FlightAware
Thu 07:44:28 PM 38.7020 139.0570 223° Southwest 384 442 34,000  Level FlightAware
Thu 07:45:18 PM 38.6380 138.9800 223° Southwest 384 442 34,000  Level FlightAware
Thu 07:46:14 PM 38.5630 138.8900 223° Southwest 390 449 34,000  Level FlightAware
Thu 07:47:06 PM 38.4970 138.8110 223° Southwest 392 451 34,000  Level FlightAware
Thu 07:48:06 PM 38.4170 138.7160 223° Southwest 385 443 34,000  Level FlightAware
Thu 07:48:48 PM 38.3580 138.6450 223° Southwest 392 451 34,000  Level FlightAware
Thu 07:49:28 PM 38.3060 138.5840 223° Southwest 392 451 34,000  Level FlightAware
Thu 07:50:18 PM 38.2380 138.5040 223° Southwest 393 452 34,000  Level FlightAware
Thu 07:50:43 PM 38.2060 138.4660 223° Southwest 394 453 34,000  Level FlightAware
Thu 07:51:18 PM 38.1600 138.4120 223° Southwest 394 453 34,000  Level FlightAware
Thu 07:52:18 PM 38.0770 138.3150 223° Southwest 394 453 34,000  Level FlightAware
Thu 07:52:49 PM 38.0360 138.2670 223° Southwest 394 453 34,000  Level FlightAware
Thu 07:53:18 PM 37.9990 138.2230 223° Southwest 394 453 34,000  Level FlightAware
Thu 07:54:09 PM 37.9300 138.1420 223° Southwest 394 453 34,000  Level FlightAware
Thu 07:55:03 PM 37.8560 138.0560 223° Southwest 394 453 34,000  Level FlightAware
Thu 07:55:53 PM 37.7900 137.9790 223° Southwest 394 453 34,000  Level FlightAware
Thu 07:56:39 PM 37.7330 137.9130 222° Southwest 394 453 34,000  Level FlightAware
Thu 07:57:48 PM 37.6390 137.7940 225° Southwest 389 448 34,000  Level FlightAware
Thu 07:58:18 PM 37.6110 137.7450 234° Southwest 395 455 34,000  Level FlightAware
Thu 07:59:04 PM 37.5590 137.6510 235° Southwest 397 457 34,000  Level FlightAware
Thu 07:59:59 PM 37.5010 137.5470 235° Southwest 398 458 34,000  Level FlightAware
Thu 08:00:44 PM 37.4570 137.4660 236° Southwest 399 459 34,000  Level FlightAware
Thu 08:01:19 PM 37.4180 137.3980 234° Southwest 399 459 34,000  Level FlightAware
Thu 08:01:44 PM 37.3920 137.3490 236° Southwest 399 459 34,000  Level FlightAware
Thu 08:02:14 PM 37.3590 137.2910 234° Southwest 399 459 34,000  Level FlightAware
Thu 08:03:10 PM 37.3010 137.1870 235° Southwest 400 460 34,000  Level FlightAware
Thu 08:03:34 PM 37.2740 137.1390 235° Southwest 401 461 34,000  Level FlightAware
Thu 08:04:29 PM 37.2160 137.0360 235° Southwest 402 463 34,000  Level FlightAware
Thu 08:05:20 PM 37.1620 136.9400 235° Southwest 403 464 34,000  Level FlightAware
Thu 08:06:11 PM 37.1090 136.8460 235° Southwest 403 464 34,000  Level FlightAware
Thu 08:07:01 PM 37.0540 136.7480 235° Southwest 402 463 34,000  Level FlightAware
Thu 08:07:46 PM 37.0050 136.6630 234° Southwest 401 461 34,000  Level FlightAware
Thu 08:08:35 PM 36.9520 136.5700 235° Southwest 400 460 34,000  Level FlightAware
Thu 08:09:25 PM 36.8970 136.4740 234° Southwest 399 459 34,000  Level FlightAware
Thu 08:10:13 PM 36.8490 136.3900 234° Southwest 397 457 34,000  Level FlightAware
Thu 08:11:01 PM 36.7960 136.2970 235° Southwest 397 457 34,000  Level FlightAware
Thu 08:11:30 PM 36.7650 136.2430 234° Southwest 397 457 34,000  Level FlightAware
Thu 08:12:35 PM 36.6940 136.1210 234° Southwest 398 458 34,000  Level FlightAware
Thu 08:13:10 PM 36.6590 136.0590 235° Southwest 399 459 34,000  Level FlightAware
Thu 08:14:11 PM 36.5910 135.9430 234° Southwest 400 460 34,000  Level FlightAware
Thu 08:14:55 PM 36.5420 135.8600 234° Southwest 400 460 34,000  Level FlightAware
Thu 08:15:31 PM 36.5050 135.7960 234° Southwest 402 463 34,000  Level FlightAware
Thu 08:16:20 PM 36.4510 135.7030 234° Southwest 403 464 34,000  Level FlightAware
Thu 08:17:05 PM 36.4040 135.6230 234° Southwest 405 466 34,000  Level FlightAware
Thu 08:17:25 PM 36.3820 135.5860 234° Southwest 406 467 34,000 -771 Level FlightAware
Thu 08:18:15 PM 36.3230 135.4850 234° Southwest 412 474 33,100 -1,086 Descending FlightAware
Thu 08:19:10 PM 36.2640 135.3850 234° Southwest 416 479 32,100 -1,143 Descending FlightAware
Thu 08:20:00 PM 36.2040 135.2830 234° Southwest 424 488 31,100 -1,143 Descending FlightAware
Thu 08:20:55 PM 36.1460 135.1860 233° Southwest 411 473 30,100 -600 Descending FlightAware
Thu 08:21:50 PM 36.0840 135.0820 234° Southwest 411 473 30,000 -53 Descending FlightAware
Thu 08:22:48 PM 36.0140 134.9640 234° Southwest 438 504 30,000  Level FlightAware
Thu 08:23:42 PM 35.9450 134.8500 233° Southwest 436 502 30,000  Level FlightAware
Thu 08:24:33 PM 35.8900 134.7590 233° Southwest 431 496 30,000  Level FlightAware
Thu 08:25:32 PM 35.8060 134.6530 226° Southwest 432 497 30,000 -101 Level FlightAware
Thu 08:26:32 PM 35.7000 134.5790 210° Southwest 437 503 29,800 -900 Descending FlightAware
Thu 08:27:32 PM 35.5930 134.5060 209° Southwest 445 512 28,200 -1,855 Descending FlightAware
Thu 08:28:22 PM 35.5000 134.4430 209° Southwest 430 495 26,400 -2,229 Descending FlightAware
Thu 08:29:17 PM 35.4060 134.3780 209° Southwest 412 474 24,300 -2,073 Descending FlightAware
Thu 08:30:12 PM 35.3240 134.3230 209° Southwest 399 459 22,600 -1,920 Descending FlightAware
Thu 08:30:57 PM 35.2490 134.2720 209° Southwest 403 464 21,100 -2,000 Descending FlightAware
Thu 08:32:09 PM 35.1310 134.1920 209° Southwest 386 444 18,700 -1,941 Descending FlightAware
Thu 08:32:39 PM 35.0840 134.1610 208° Southwest 382 440 17,800 -1,624 Descending FlightAware
Thu 08:33:34 PM 34.9990 134.1030 209° Southwest 372 428 16,400 -1,080 Descending FlightAware
Thu 08:34:19 PM 34.9250 134.0700 200° South 372 428 16,000 -338 Descending FlightAware
Thu 08:34:45 PM 34.8870 134.0730 176° South 375 432 16,000  Level FlightAware
Thu 08:35:09 PM 34.8440 134.0950 157° South 373 429 16,000  Level FlightAware
Thu 08:35:39 PM 34.7980 134.1270 150° Southeast 376 433 16,000 -225 Level FlightAware
Thu 08:36:29 PM 34.7280 134.1760 150° Southeast 367 422 15,700 -1,380 Descending FlightAware
Thu 08:37:19 PM 34.6470 134.2300 151° Southeast 353 406 13,700 -2,337 Descending FlightAware
Thu 08:38:04 PM 34.5860 134.2810 145° Southeast 355 409 12,000 -1,516 Descending FlightAware
Thu 08:38:50 PM 34.5310 134.3350 141° Southeast 312 359 11,400 -738 Descending FlightAware
Thu 08:39:09 PM 34.5090 134.3570 141° Southeast 298 343 11,200 -800 Descending FlightAware
Thu 08:40:05 PM 34.4530 134.4140 140° Southeast 276 318 10,400 -821 Descending FlightAware
Thu 08:40:44 PM 34.4140 134.4520 141° Southeast 272 313 9,900 -750 Descending FlightAware
Thu 08:41:09 PM 34.3910 134.4750 140° Southeast 255 293 9,600 -982 Descending FlightAware
Thu 08:41:39 PM 34.3630 134.5020 141° Southeast 249 287 9,000 -1,286 Descending FlightAware
Thu 08:42:05 PM 34.3390 134.5250 142° Southeast 250 288 8,400 -1,440 Descending FlightAware
Thu 08:42:29 PM 34.3150 134.5470 143° Southeast 262 302 7,800 -1,500 Descending FlightAware
Thu 08:42:49 PM 34.2950 134.5640 145° Southeast 256 295 7,300 -1,333 Descending FlightAware
Thu 08:43:14 PM 34.2700 134.5860 144° Southeast 262 302 6,800 -960 Descending FlightAware
Thu 08:43:39 PM 34.2460 134.6070 144° Southeast 253 291 6,500 -533 Descending FlightAware
Thu 08:43:59 PM 34.2270 134.6230 145° Southeast 237 273 6,400 -327 Descending FlightAware
Thu 08:44:34 PM 34.1970 134.6490 144° Southeast 220 253 6,200 -200 Descending FlightAware
Thu 08:44:59 PM 34.1750 134.6680 144° Southeast 224 258 6,200  Level FlightAware
Thu 08:45:19 PM 34.1610 134.6850 135° Southeast 224 258 6,200  Level FlightAware
Thu 08:45:49 PM 34.1580 134.7240 95° East 232 267 6,200  Level FlightAware
Thu 08:46:09 PM 34.1570 134.7490 93° East 235 270 6,200  Level FlightAware
Thu 08:46:49 PM 34.1740 134.7950 66° East 233 268 6,200 -429 Level FlightAware
Thu 08:47:19 PM 34.1910 134.8290 59° Northeast 230 265 5,700 -900 Descending FlightAware
Thu 08:47:29 PM 34.1970 134.8400 57° Northeast 229 264 5,600 -923 Descending FlightAware
Thu 08:47:58 PM 34.1580 134.7220 248° West 232 267 5,100 -882 Descending FlightAware
Thu 08:48:37 PM 34.2360 134.9150 64° Northeast 227 261 4,600 -808 Descending FlightAware
Thu 08:48:50 PM 34.2420 134.9260 57° Northeast 223 257 4,400 -533 Descending FlightAware
Thu 08:49:22 PM 34.2640 134.9620 54° Northeast 225 259 4,200 -231 Descending FlightAware
Thu 08:49:42 PM 34.2760 134.9800 51° Northeast 225 259 4,200 -120 Level FlightAware
Thu 08:50:12 PM 34.2970 135.0100 50° Northeast 224 258 4,100 -686 Descending FlightAware
Thu 08:50:52 PM 34.3220 135.0480 51° Northeast 207 238 3,400 -1,029 Descending FlightAware
Thu 08:51:22 PM 34.3390 135.0730 51° Northeast 189 217 2,900 -982 Descending FlightAware
Thu 08:51:47 PM 34.3500 135.0900 52° Northeast 181 208 2,500 -900 Descending FlightAware
Thu 08:52:22 PM 34.3680 135.1170 51° Northeast 169 194 2,000 -857 Descending FlightAware
Thu 08:52:57 PM 34.3850 135.1420 51° Northeast 143 165 1,500 -738 Descending FlightAware
Thu 08:53:27 PM 34.3970 135.1590 49° Northeast 129 148 1,200 -700 Descending FlightAware
Thu 08:53:57 PM 34.4070 135.1750 53° Northeast 130 150 800 -750 Descending FlightAware
Thu 08:54:07 PM 34.4120 135.1820 49° Northeast 129 148 700 -655 Descending FlightAware
Thu 08:54:52 PM 34.4290 135.2070 50° Northeast 132 152 200 -667 Descending FlightAware
Thu 08:55:12 PM 34.4360 135.2170 50° Northeast 133 153 -600 Descending FlightAware
Thu 08:55:45 PM 34.4460 135.2320 51° Northeast 133 153  Level FlightAware
Thu 08:55:57 PM 34.4380 135.2230 223° Southwest 133 153  Level FlightAware
Thu 08:56:25 PM 34.4480 135.2370 49° Northeast 133 153  Level FlightAware
Thu 08:59:00 PM 34.4273 135.2441 206° Southwest  Level Estimated
Thu 09:00:00 PM 34.4273 135.2441 206° Southwest  Level Estimated
Thu 09:01:00 PM 34.4273 135.2441 206° Southwest  Level Estimated
Thu 09:02:00 PM 34.4273 135.2441 206° Southwest  Level Estimated
Thu 09:03:00 PM 34.4273 135.2441 206° Southwest  Level Estimated
Thu 09:04:00 PM 34.4273 135.2441 206° Southwest  Level Estimated
Thu 09:05:00 PM 34.4273 135.2441 206° Southwest  Level Estimated
Thu 09:06:00 PM 34.4273 135.2441 206° Southwest  Level Estimated
Thu 09:07:00 PM 34.4273 135.2441 206° Southwest  Level Estimated
Thu 09:08:00 PM 34.4273 135.2441 206° Southwest  Level Estimated
Thu 09:09:00 PM 34.4273 135.2441 206° Southwest  Level Estimated
Thu 09:10:00 PM 34.4273 135.2441 206° Southwest  Level Estimated
Thu 09:11:00 PM 34.4273 135.2441 206° Southwest  Level Estimated
Thu 09:12:00 PM 34.4273 135.2441 206° Southwest  Level Estimated
Thu 09:13:00 PM 34.4273 135.2441 206° Southwest  Level Estimated
Thu 09:14:00 PM 34.4273 135.2441 206° Southwest  Level Estimated
Thu 09:15:00 PM 34.4273 135.2441 206° Southwest  Level Estimated
Thu 09:16:00 PM 34.4273 135.2441 206° Southwest  Level Estimated
Thu 09:17:00 PM 34.4273 135.2441 206° Southwest  Level Estimated
Thu 09:18:00 PM 34.4273 135.2441 206° Southwest  Level Estimated
Thu 09:19:00 PM 34.4273 135.2441 206° Southwest  Level Estimated
Thu 09:20:00 PM 34.4273 135.2441 206° Southwest  Level Estimated
Thu 09:21:00 PM 34.4273 135.2441 206° Southwest  Level Estimated
Thu 09:22:00 PM 34.4273 135.2441 206° Southwest  Level Estimated
Thu 09:23:00 PM 34.4273 135.2441 206° Southwest  Level Estimated
Thu 09:24:00 PM 34.4273 135.2441 206° Southwest  Level Estimated
Thu 09:25:00 PM 34.4273 135.2441 206° Southwest  Level Estimated
Thu 09:26:00 PM 34.4273 135.2441 206° Southwest  Level Estimated
Thu 09:27:00 PM 34.4273 135.2441 206° Southwest  Level Estimated
Thu 09:28:00 PM 34.4273 135.2441 206° Southwest  Level Estimated
Thu 09:29:00 PM 34.4273 135.2441 206° Southwest  Level Estimated
Thu 09:30:00 PM 34.4273 135.2441 206° Southwest  Level Estimated
Thu 09:31:00 PM 34.4273 135.2441 206° Southwest  Level Estimated
Thu 09:32:00 PM 34.4273 135.2441 206° Southwest  Level Estimated
Thu 09:33:00 PM 34.4273 135.2441 206° Southwest  Level Estimated
Thu 09:34:00 PM 34.4273 135.2441 206° Southwest  Level Estimated
Thu 09:35:00 PM 34.4273 135.2441 206° Southwest  Level Estimated
Thu 09:36:00 PM 34.4273 135.2441 206° Southwest  Level Estimated
Thu 09:37:00 PM 34.4273 135.2441 206° Southwest  Level Estimated

Login

Don't have an account? Register now (free) for customized features, flight alerts, and more!